Showing default

RAY 1.0, 62627

Orbit data source: Space-Track

RAY 1.0, 62627 is a payload satellite owned by Inversion Space (US) in SSO that was launched on Tue, 14 Jan 2025 UTC via an FALCON 9 launch vehicle from the Air Force Western Test Range (AFWTR). Payload-class satellites include a variety of spacecraft equipped with specific instruments for various scientific and technological missions. These include communications satellites like Starlink; space stations such as the ISS; scientific satellites like the Hubble; Earth observation satellites from companies like Planet Labs, Umbra, and HawkEye 360; GPS; miniature CubeSats for education and research; and military/defense satellites.

Loading next visibility...
Identifier
62627, 2025-009U
Orbit
SSO
Country
Flag of USUS
Related business
Manufacturer
Inversion Space
Mission
Operational Commercial Technology
Bus & Motor
RAY, Unknown motor
Mass
63 kg wet, 32 kg dry
Launch date (UTC)
2025-01-14 (9 months ago)
Launch vehicle
FALCON 9
Launch site
Air Force Western Test Range (AFWTR)
Object type
Payload
Rocket body
Debris
Shape & HBR
Box + Cone, 0.6 m
Radar Cross Section
0.875 m², Medium (>0.1 m² and < 1m²)

Expand to show TLE details & history
Last TLE update: 10 hours ago

TLE from 10 hours ago
0 RAY 1.0
1 62627U 25009U   25291.18965318  .00005530  00000-0  27032-3 0  9999
2 62627  97.4230   8.9177 0010179  48.8378 311.3733 15.18590671 41928
Epoch: 2025-10-18T04:33Z
TLE epoch observation values (Epoch: 2025-10-18T04:33:06.034Z)
Latitude
-0.00002°
Longitude
-86.28168°
Altitude
508.556 km
Speed
7.612 km/s
True Right ascension
00h 35m 40s
True Declination
0° 00' 00"
Sunlit
Object was in full shadow at epoch
Visualization orbit readout
Latitude
Unknown
Longitude
Unknown
Altitude
Unknown
Speed
Unknown
Apparent Right ascension
Unknown
Apparent Declination
Unknown
Sunlit
N/A
Visualization observer readout
Local Sidereal Time
09:01:59
Azimuth
Unknown
Elevation
Unknown
Doppler factor
Unknown
Orbital elements
Apogee altitude
514.076 km
Perigee altitude
500.059 km
Semi-major axis
6,885.205 km
Eccentricity
0.00102
Inclination
97.423°
RAAN
8.9177°
Arg. of periapsis
48.8378°
True anomaly
311.2857°
Mean anomaly
311.3733°
Eccentric anomaly
311.32951°
Mean motion
3.79899 °/min
Orbital period
94.76 mins
BSTAR
0.00027032
Loading maneuver chart data...
Computing Atmospheric mass density...
Loading historical data...
Loading historical data...
Loading historical data...
Loading historical data...
Loading historical data...
Loading historical data...
Loading historical data...

Documentation

Showing up to 5 results
|